Total_Precipitation_Accumulation
1.89 1.90 1.74 1.77 1.77 1.99 2.38 2.79 2.84 3.07 3.14 2.86 2.43 2.25 2.32 2.19 2.14 2.02 1.64 1.71 1.89 1.95 1.93 1.88 1.85 1.81 1.81 1.72 1.53 1.40 1.21 1.08 0.93 0.75 0.59 0.50 0.53 0.49 0.36 0.26 0.17 0.13 0.10
1.68 1.64 1.62 1.74 1.80 1.78 1.93 2.33 2.58 2.87 2.90 2.60 2.18 2.06 2.05 2.08 1.97 1.90 1.66 1.69 1.80 1.69 1.70 1.87 2.02 2.03 1.96 1.85 1.70 1.56 1.37 1.22 1.04 0.79 0.67 0.62 0.48 0.44 0.44 0.33 0.23 0.16 0.11
1.38 1.37 1.44 1.42 1.48 1.49 1.52 1.68 1.92 2.15 2.16 2.09 2.05 2.07 2.02 1.93 1.77 1.73 1.76 1.69 1.50 1.54 1.60 1.70 1.84 1.94 2.08 2.16 2.07 1.87 1.64 1.38 1.14 0.88 0.68 0.56 0.48 0.36 0.31 0.32 0.32 0.25 0.14
0.89 0.93 0.98 0.98 0.96 0.91 0.99 1.20 1.32 1.49 1.72 1.89 1.99 1.95 1.94 1.96 1.79 1.71 1.69 1.66 1.63 1.40 1.58 1.66 1.64 1.70 1.94 2.15 2.22 2.30 2.05 1.67 1.36 1.12 0.87 0.63 0.51 0.42 0.32 0.29 0.33 0.33 0.22
0.69 0.74 0.79 0.86 0.67 0.64 0.69 0.71 0.95 1.10 1.33 1.47 1.37 1.51 1.53 1.56 1.48 1.33 1.34 1.24 1.39 1.34 1.39 1.45 1.50 1.49 1.69 2.09 2.43 2.68 2.55 2.08 1.63 1.37 1.21 0.98 0.78 0.60 0.45 0.36 0.32 0.31 0.27
0.69 0.74 0.67 0.64 0.54 0.58 0.67 0.77 0.94 0.94 0.97 1.09 1.02 1.21 1.18 1.11 1.14 1.08 0.97 0.98 1.04 0.96 1.05 1.18 1.23 1.11 1.39 1.85 2.25 2.55 2.65 2.46 2.05 1.67 1.56 1.44 1.29 0.97 0.68 0.52 0.41 0.36 0.30
0.74 0.76 0.65 0.69 0.60 0.60 0.61 0.62 0.74 0.78 0.75 0.75 1.02 1.24 1.08 0.86 0.84 0.76 0.75 0.84 0.91 0.94 1.09 1.21 1.19 1.18 1.10 1.19 1.34 1.74 2.22 2.60 2.57 2.13 1.85 1.72 1.64 1.30 0.86 0.70 0.63 0.49 0.41
0.69 0.62 0.71 0.59 0.58 0.64 0.63 0.65 0.73 0.75 0.66 0.66 0.90 1.14 1.08 1.14 1.09 0.62 0.69 0.79 0.85 0.99 1.05 1.04 1.09 1.20 1.08 1.12 0.75 0.92 1.47 1.94 2.40 2.38 2.03 1.78 1.73 1.51 1.09 0.87 0.75 0.65 0.56
0.65 0.63 0.60 0.58 0.67 0.54 0.66 0.76 0.75 0.74 0.73 0.65 0.65 0.83 0.94 0.96 0.91 0.81 0.69 0.68 0.76 0.94 1.00 1.05 1.02 1.11 1.14 1.25 1.14 0.82 1.00 1.18 1.70 2.27 2.34 1.93 1.60 1.42 1.26 1.15 0.98 0.75 0.66
0.68 0.64 0.56 0.61 0.69 0.60 0.78 0.61 0.63 0.73 0.74 0.64 0.59 0.51 0.53 0.66 0.78 0.88 0.80 0.68 0.70 0.79 0.83 0.78 0.84 1.00 1.04 1.05 1.06 0.72 0.56 0.69 1.18 1.84 2.20 2.17 1.85 1.55 1.36 1.33 1.40 1.26 0.97
0.81 0.71 0.66 0.67 0.62 0.58 0.66 0.68 0.81 0.73 0.71 0.66 0.60 0.54 0.56 0.53 0.50 0.61 0.77 0.79 0.78 0.61 0.55 0.61 0.73 0.88 0.93 0.97 1.08 0.79 0.54 0.60 0.79 1.14 1.50 1.79 1.87 1.71 1.51 1.54 1.85 2.02 1.80
0.87 0.82 0.83 0.80 0.71 0.62 0.63 0.64 0.71 0.74 0.79 0.85 0.72 0.60 0.62 0.59 0.51 0.54 0.52 0.54 0.64 0.53 0.49 0.53 0.62 0.73 0.81 0.92 0.89 0.71 0.67 0.75 0.78 0.83 0.94 1.13 1.36 1.46 1.43 1.51 1.75 2.10 2.28
0.77 0.77 0.78 0.84 0.79 0.76 0.74 0.72 0.70 0.70 0.77 0.83 0.75 0.63 0.56 0.48 0.51 0.54 0.56 0.47 0.46 0.42 0.51 0.48 0.52 0.57 0.59 0.79 1.00 0.98 0.82 0.83 0.79 0.76 0.78 0.81 0.92 1.09 1.12 1.17 1.37 1.69 2.04
0.83 0.79 0.79 0.75 0.74 0.77 0.76 0.87 0.72 0.67 0.72 0.71 0.66 0.74 0.68 0.46 0.45 0.52 0.57 0.60 0.62 0.60 0.65 0.62 0.67 0.69 0.66 0.75 0.92 1.01 0.86 0.80 0.69 0.63 0.64 0.64 0.67 0.77 0.87 0.91 0.98 1.10 1.27
0.94 0.88 0.79 0.76 0.78 0.80 0.81 0.86 0.80 0.79 0.79 0.69 0.65 0.73 0.68 0.54 0.46 0.40 0.49 0.61 0.78 0.80 0.77 0.73 0.81 0.85 0.76 0.78 0.83 0.78 0.83 0.85 0.75 0.65 0.57 0.53 0.53 0.53 0.57 0.63 0.68 0.70 0.72
0.84 0.88 0.85 0.78 0.79 0.83 0.88 0.90 0.90 0.95 0.99 0.90 0.77 0.77 0.74 0.65 0.64 0.51 0.49 0.61 0.75 0.85 0.87 0.67 0.75 0.79 0.83 0.75 0.82 0.80 0.84 0.84 0.72 0.64 0.54 0.50 0.49 0.49 0.49 0.49 0.53 0.59 0.60
0.86 0.86 0.86 0.82 0.78 0.81 0.86 0.89 0.88 0.99 1.12 1.17 1.03 0.92 0.87 0.82 0.83 0.72 0.70 0.74 0.77 0.90 1.00 0.89 0.86 0.96 1.00 0.93 0.92 0.87 0.79 0.78 0.70 0.67 0.56 0.51 0.48 0.47 0.49 0.48 0.48 0.48 0.53
1.01 1.00 0.98 0.97 0.90 0.84 0.87 0.85 0.79 0.85 1.01 1.21 1.36 1.38 1.21 1.07 1.03 0.90 0.87 0.86 0.85 0.92 1.00 1.06 1.04 1.07 1.07 1.06 1.02 0.84 0.69 0.65 0.67 0.70 0.62 0.58 0.57 0.53 0.49 0.47 0.46 0.44 0.44
1.21 1.22 1.21 1.15 1.08 1.05 1.02 0.97 0.91 0.89 0.93 1.02 1.20 1.38 1.38 1.37 1.21 1.11 1.03 0.96 0.91 0.87 0.95 1.00 1.04 1.17 1.23 1.21 1.03 0.77 0.67 0.69 0.62 0.72 0.71 0.58 0.51 0.48 0.45 0.40 0.36 0.34 0.34
1.37 1.39 1.38 1.31 1.24 1.19 1.16 1.13 1.10 1.08 1.08 1.06 1.06 1.10 1.20 1.36 1.31 1.23 1.16 1.10 1.06 1.04 1.05 1.04 1.08 1.22 1.39 1.41 1.18 0.88 0.75 0.72 0.67 0.56 0.59 0.55 0.50 0.46 0.42 0.39 0.36 0.34 0.33
1.56 1.64 1.58 1.49 1.42 1.38 1.27 1.33 1.43 1.41 1.40 1.25 1.12 1.04 1.01 1.15 1.25 1.25 1.13 1.08 1.12 1.14 1.12 1.09 1.14 1.27 1.41 1.49 1.24 0.99 0.83 0.75 0.69 0.60 0.53 0.48 0.46 0.45 0.48 0.49 0.47 0.41 0.37
1.76 1.70 1.64 1.63 1.58 1.42 1.51 1.52 1.43 1.42 1.53 1.50 1.36 1.25 1.10 1.03 1.04 1.10 1.16 1.18 1.17 1.15 1.17 1.20 1.22 1.30 1.39 1.43 1.46 1.28 1.05 0.83 0.72 0.65 0.64 0.57 0.51 0.49 0.43 0.39 0.46 0.44 0.41
1.69 1.64 1.65 1.68 1.64 1.63 1.53 1.35 1.24 1.21 1.26 1.32 1.34 1.27 1.06 0.96 1.01 0.99 1.12 1.16 1.11 1.05 1.01 1.07 1.13 1.21 1.48 1.63 1.74 1.47 1.23 1.06 0.85 0.75 0.69 0.60 0.55 0.51 0.44 0.42 0.50 0.44 0.40
1.50 1.48 1.47 1.39 1.34 1.30 1.26 1.10 1.05 1.04 1.05 1.03 1.11 1.19 1.12 1.02 0.97 0.95 0.90 0.84 0.82 0.83 0.81 0.78 0.84 1.01 1.27 1.62 1.79 1.76 1.65 1.41 1.20 0.96 0.77 0.64 0.54 0.51 0.49 0.45 0.52 0.50 0.43
1.30 1.20 1.14 1.12 1.12 1.15 1.23 1.05 0.97 0.96 0.99 0.92 0.92 0.94 0.95 0.86 0.84 0.76 0.73 0.66 0.63 0.63 0.63 0.64 0.67 0.82 1.01 1.26 1.59 1.75 1.69 1.47 1.21 0.94 0.73 0.62 0.55 0.52 0.49 0.45 0.45 0.50 0.45
1.23 1.20 1.13 1.09 1.08 1.09 1.17 1.01 0.93 0.93 0.96 0.92 0.91 0.95 1.02 0.88 0.74 0.59 0.59 0.62 0.56 0.52 0.54 0.54 0.54 0.58 0.70 0.88 1.20 1.35 1.33 1.28 1.11 0.89 0.63 0.57 0.51 0.54 0.49 0.40 0.34 0.33 0.35